GFSMW_prec_cloud_159.txt.gz
Cloud_Cover
23 61 90 100 92 100 92 34 5 41 62 37 58 74 21 19 35 35 7 6 7 5 100 100 35 34 16 8 4 5 100 100 100 100 100 94 100 87 22 96 68 24 38
88 100 100 100 34 90 57 81 42 1 5 5 5 9 10 5 33 99 0 0 0 1 94 38 0 5 5 76 0 4 6 80 100 44 75 14 74 99 96 59 83 100 23
37 100 100 96 100 100 100 0 28 0 0 0 1 4 5 5 9 4 9 0 0 0 3 2 5 4 5 5 0 4 23 35 13 5 5 9 42 94 65 100 100 84 76
78 13 100 100 76 100 100 0 0 0 0 0 3 5 11 5 2 2 18 0 0 2 0 3 5 0 5 5 0 5 7 5 6 5 0 3 83 100 90 78 57 7 100
5 100 100 100 100 100 100 0 0 0 0 0 5 3 0 8 86 72 0 0 23 0 0 0 0 0 0 2 5 5 5 5 5 5 4 26 57 100 100 100 46 100 70
97 59 99 100 100 100 89 0 0 0 0 5 0 0 0 0 100 7 0 1 0 0 0 0 0 0 0 5 5 24 5 0 0 2 0 4 24 97 100 100 56 13 31
8 75 100 100 100 100 93 0 0 0 0 0 0 0 0 0 2 1 0 1 0 0 0 0 0 0 0 0 5 5 5 4 5 15 5 5 5 7 5 13 1 6 55
90 100 100 60 100 100 100 100 0 0 1 0 0 0 55 95 88 3 1 0 52 0 0 0 0 3 0 0 0 0 5 5 38 78 90 5 4 79 1 53 6 5 100
48 10 100 93 100 100 100 100 30 19 0 0 0 26 100 92 34 0 0 0 1 7 0 3 4 0 0 0 0 0 5 5 8 20 15 5 1 11 62 6 74 28 5
32 2 65 100 100 100 96 94 75 0 25 0 0 72 97 9 0 0 0 0 49 100 100 100 87 3 0 0 0 4 5 4 2 5 5 5 5 3 22 100 26 84 95
2 0 73 100 100 100 100 100 100 100 84 4 0 5 18 12 0 0 0 99 100 100 100 100 100 52 41 0 0 0 0 0 0 3 5 3 0 3 2 53 21 60 98
0 0 94 60 87 100 100 100 100 100 100 100 24 11 3 3 0 0 0 19 100 100 100 100 100 97 6 2 2 2 0 0 1 3 0 0 0 0 0 0 20 48 38
2 6 21 63 50 100 100 100 100 100 100 68 100 32 34 5 0 0 0 2 100 100 100 100 98 100 97 0 2 1 0 1 2 0 0 0 0 0 0 0 5 4 56
0 0 0 1 38 100 100 100 100 100 85 100 100 100 69 69 43 0 0 0 0 48 56 70 99 100 100 0 0 0 0 0 3 4 2 0 1 1 5 4 5 3 52
0 0 0 0 8 100 100 100 100 100 100 100 100 100 100 71 5 5 0 0 0 0 0 0 8 21 3 0 0 0 0 0 5 5 5 0 2 29 26 51 6 5 11
0 0 0 0 1 100 100 100 100 100 100 100 100 100 100 100 71 100 20 2 0 0 0 0 0 0 0 0 0 0 0 0 2 0 4 10 2 7 76 91 15 88 89
0 0 0 0 15 100 100 100 100 100 100 100 100 100 100 100 100 100 98 100 81 0 0 0 0 0 0 0 0 0 0 0 0 4 1 0 1 2 21 5 5 6 13
0 0 0 0 1 86 100 100 100 100 100 100 100 100 100 100 100 100 100 100 100 49 0 4 3 1 0 0 0 0 1 0 0 0 1 5 11 16 14 5 5 92 100
0 0 0 0 0 2 38 100 100 100 100 100 100 100 100 100 100 100 100 100 100 100 94 5 1 2 5 7 0 9 0 0 0 1 0 0 7 35 99 100 27 14 62
0 0 0 0 0 0 84 40 69 100 15 96 100 100 100 100 100 100 100 100 100 100 83 98 100 100 81 100 100 90 14 46 12 12 18 27 3 5 59 10 14 16 42
0 0 0 0 0 0 3 25 100 100 100 89 8 79 100 100 100 100 100 100 100 100 98 100 100 100 100 100 100 100 100 100 100 75 42 36 55 43 52 44 60 94 100
5 5 1 0 0 0 0 1 27 32 23 100 99 56 73 100 100 100 100 100 100 30 55 98 100 100 100 100 100 100 100 100 100 100 100 100 100 100 71 20 76 99 100
0 2 0 0 0 0 0 0 0 0 6 69 95 100 100 100 92 100 94 100 100 95 100 100 62 99 100 100 100 100 100 100 100 100 100 100 100 100 100 100 100 100 100
0 0 0 0 0 0 0 0 0 67 100 96 100 100 54 95 99 100 95 100 99 100 100 100 100 100 100 100 100 100 100 100 100 100 100 100 100 100 100 100 100 100 100
0 0 0 0 0 0 0 0 0 0 65 68 100 96 88 30 100 100 100 100 100 100 60 95 96 87 95 100 100 100 100 100 100 100 100 100 100 100 100 100 100 100 100
0 0 0 0 0 0 0 0 0 0 0 95 100 96 88 100 64 100 100 100 100 100 100 100 88 100 96 100 100 100 100 100 100 100 100 100 100 100 100 100 100 100 100

GFSMW_prec_cloud_162.txt.gz
Cloud_Cover
10 12 42 28 88 100 100 100 100 12 100 84 74 94 94 9 61 15 5 100 100 100 100 100 100 6 97 8 100 100 100 100 39 100 74 3 5 29 16 72 4 5 0
60 13 75 25 86 100 100 100 100 91 35 100 84 54 100 100 12 48 5 5 3 40 18 98 97 30 57 86 56 23 11 87 38 43 6 14 82 100 78 88 100 60 10
44 12 100 100 100 100 100 100 99 3 2 7 71 15 5 5 24 21 5 0 0 0 99 90 47 31 98 86 70 68 1 4 13 5 22 58 94 100 100 100 98 100 100
100 34 100 97 100 100 100 100 41 0 68 5 0 5 4 0 0 0 2 0 0 1 16 9 2 76 16 20 31 3 2 30 91 2 11 18 97 100 100 100 73 100 100
98 85 100 99 70 100 100 50 0 0 2 5 1 0 0 2 0 3 4 0 0 5 5 5 0 12 92 20 5 15 40 2 2 8 24 100 100 100 100 98 100 95 94
61 91 100 100 92 100 100 100 0 0 0 4 1 0 0 3 28 24 1 33 5 4 4 6 4 3 92 5 5 5 5 4 50 92 100 97 90 90 6 46 48 77 87
10 80 96 100 100 100 100 100 31 0 4 2 0 0 0 0 59 73 0 5 5 1 21 5 0 0 4 2 2 5 5 4 5 5 95 100 84 24 5 5 6 44 90
100 100 100 99 100 100 100 100 100 6 62 0 0 0 0 0 5 0 3 5 4 4 21 4 0 0 0 5 3 2 3 5 6 4 5 63 95 63 3 5 47 32 100
98 19 79 100 100 100 100 100 100 75 1 0 0 0 0 2 4 13 18 4 0 0 0 0 0 0 0 0 5 5 5 5 7 38 5 4 4 5 41 5 5 98 81
39 60 100 99 100 100 100 100 100 100 87 35 2 0 0 0 1 0 3 0 1 0 2 0 3 5 2 0 1 5 2 5 5 5 18 6 4 0 5 95 5 59 82
7 100 41 70 46 100 100 100 100 100 100 98 15 3 19 2 0 0 0 0 0 4 5 8 9 78 0 0 0 2 1 5 5 2 6 5 5 4 3 10 71 100 98
5 3 3 54 100 100 100 100 100 100 100 100 86 94 19 1 2 3 0 5 84 18 32 26 83 96 39 3 0 5 5 0 4 5 3 5 5 0 1 19 39 62 5
65 7 0 2 5 98 41 100 100 100 100 100 100 95 100 62 0 1 100 98 100 84 5 94 100 100 57 8 5 0 5 4 0 5 5 5 5 5 5 5 5 5 5
100 100 12 0 82 66 100 100 100 100 100 100 100 78 4 100 5 0 76 100 100 100 100 100 44 85 67 15 5 0 0 1 1 5 5 5 5 5 3 4 4 5 5
100 52 40 0 23 100 100 100 100 100 100 100 100 100 91 36 46 49 2 21 100 100 100 99 98 85 6 36 5 1 0 0 0 0 1 4 38 19 0 0 2 1 3
0 0 4 0 0 73 100 100 100 100 100 100 100 100 100 100 70 6 44 6 26 99 89 20 7 5 1 0 0 0 0 0 0 0 0 0 0 1 6 13 58 47 5
1 0 0 0 0 1 84 78 100 100 100 100 100 100 100 100 100 100 100 100 100 5 96 63 6 5 3 4 0 0 0 0 0 0 0 1 0 0 0 1 5 5 5
0 0 0 0 0 0 6 100 98 100 100 100 100 100 100 100 100 100 100 100 100 100 100 100 99 67 6 4 5 0 0 0 0 0 0 0 17 8 0 0 5 5 5
2 0 0 0 0 0 0 100 18 16 96 100 99 100 100 100 100 100 100 100 100 100 100 100 100 100 100 20 2 4 0 0 0 18 0 0 6 60 0 2 3 3 5
0 0 0 0 0 0 0 83 100 39 32 100 100 100 100 100 100 100 100 100 100 100 100 100 100 100 100 100 99 100 100 100 85 75 52 57 4 99 6 3 0 0 20
0 4 2 0 1 4 0 2 58 100 51 100 100 100 100 100 100 100 100 100 100 100 100 100 100 100 100 100 100 100 100 100 100 100 100 100 100 86 67 31 35 10 3
0 0 5 24 5 4 0 0 47 100 74 100 100 100 100 100 100 100 100 100 100 100 100 100 100 100 100 100 100 100 100 100 100 100 100 100 100 100 100 100 100 100 91
0 1 1 0 0 0 0 0 0 70 17 100 98 100 100 100 100 100 100 100 100 100 96 100 100 100 99 100 100 100 100 100 100 100 100 100 100 100 100 100 100 100 100
5 0 0 0 0 0 0 0 0 5 97 85 100 60 62 100 100 100 100 100 100 100 100 100 100 100 100 100 100 100 100 100 100 100 100 100 100 100 100 100 100 100 100
21 0 0 0 0 0 0 0 0 5 80 99 46 100 100 100 100 100 100 100 100 100 100 100 100 100 91 95 100 100 100 100 100 100 100 100 100 100 100 100 100 100 100
3 0 0 0 0 0 0 0 0 0 3 76 30 74 27 37 78 96 100 100 100 100 100 100 100 100 100 100 100 100 100 100 100 100 100 100 100 100 100 100 100 100 100

GFSMW_prec_cloud_165.txt.gz
Cloud_Cover
85 3 14 100 7 100 100 100 100 100 100 24 89 86 16 56 33 88 74 100 92 100 100 70 99 75 100 98 100 82 92 24 32 2 5 4 0 3 0 0 1 2 0
37 1 23 18 96 98 86 69 100 100 100 100 100 100 69 97 74 5 5 6 100 82 100 47 100 100 100 100 100 32 24 5 4 28 14 10 24 91 64 5 0 1 0
0 4 3 5 6 39 96 91 100 100 12 84 99 100 6 8 100 100 3 3 96 81 100 96 100 100 100 37 12 45 66 52 5 8 5 11 96 97 100 52 27 5 5
5 5 5 5 73 99 100 100 100 89 2 74 7 98 100 32 9 3 1 0 5 26 8 20 95 89 48 6 5 26 7 2 6 92 5 5 5 40 82 98 14 5 5
5 5 73 5 67 87 100 100 75 0 43 96 5 21 42 9 56 0 0 0 0 1 8 5 76 90 5 10 5 38 4 5 49 72 8 5 5 5 5 43 5 24 22
46 5 24 10 72 76 98 100 84 5 4 5 5 5 5 0 0 0 5 0 0 75 5 5 6 92 6 38 5 5 5 20 22 30 5 7 37 88 26 17 98 100 100
5 4 33 42 25 69 77 100 100 30 3 2 4 75 24 3 0 2 0 0 16 43 4 5 5 2 21 5 5 5 5 18 83 40 9 9 12 5 5 10 100 100 100
5 5 6 69 100 96 54 100 100 100 58 3 2 0 0 0 5 3 0 0 14 0 0 4 0 5 21 5 5 3 5 79 31 100 38 16 6 6 63 10 45 100 98
40 23 99 59 62 100 100 100 100 100 62 4 0 0 0 0 11 48 0 0 4 0 1 0 0 2 2 5 5 5 5 56 5 6 84 13 5 6 58 99 91 100 100
5 78 58 54 35 81 100 98 100 100 100 83 0 0 0 4 84 28 0 0 0 4 0 0 0 0 0 0 0 0 5 5 5 4 9 72 7 17 27 100 90 100 98
8 94 13 54 5 5 74 86 100 100 100 100 19 1 4 81 5 0 1 0 0 0 0 8 7 2 3 4 5 0 0 2 5 4 4 2 5 5 5 5 13 87 81
5 5 12 32 5 5 96 59 100 100 100 100 90 12 11 8 1 0 5 0 0 0 0 0 1 4 5 1 0 0 0 1 4 4 1 3 2 5 0 2 5 30 98
78 91 4 5 3 4 44 100 92 100 100 90 100 94 85 10 14 0 0 0 0 0 0 3 5 5 11 40 0 0 1 5 0 0 0 3 0 0 0 1 2 5 5
100 100 20 5 4 4 2 90 14 100 100 100 100 100 54 39 3 2 0 1 2 0 2 4 90 100 100 88 8 1 1 0 0 0 0 0 2 4 0 3 1 4 34
82 100 100 52 68 32 5 84 28 100 100 100 100 100 100 11 4 0 3 4 30 11 2 5 12 100 79 65 8 2 0 0 0 0 0 1 2 22 5 5 5 4 4
0 0 2 98 5 5 93 79 71 100 100 100 100 100 100 100 19 5 100 6 83 100 28 5 4 26 4 24 0 1 2 0 0 0 0 0 12 28 85 58 12 9 8
0 0 0 0 0 0 6 100 27 100 100 100 100 100 85 100 97 5 18 8 7 36 97 99 6 43 4 5 3 5 2 0 0 0 0 0 0 5 5 44 37 27 22
0 0 2 0 0 0 5 90 100 100 70 100 100 100 100 100 100 76 53 88 5 5 16 32 42 31 12 43 8 3 1 0 1 2 5 2 7 20 8 7 5 7 7
5 0 0 0 0 0 16 10 21 76 58 100 100 100 99 100 100 100 100 99 98 97 95 100 100 100 100 100 100 94 67 45 94 5 0 0 0 20 19 3 1 2 0
0 0 2 0 0 0 0 5 5 0 100 100 100 100 100 100 100 100 100 100 100 100 100 100 100 100 100 100 100 100 100 100 100 100 97 99 84 100 48 100 81 10 4
0 2 0 0 0 2 0 0 7 78 13 99 100 100 100 100 100 100 100 100 100 100 100 100 100 100 100 100 100 100 100 100 100 100 100 100 100 100 100 100 100 100 100
25 5 0 0 0 0 0 0 6 7 87 85 100 100 88 100 98 100 100 100 100 100 100 100 100 100 100 100 100 100 100 100 100 100 100 100 100 100 100 100 100 100 100
5 2 0 0 0 0 0 0 0 0 12 100 100 100 98 5 48 100 40 100 100 100 100 100 100 100 100 100 100 100 100 100 100 100 100 100 100 100 100 100 100 100 100
10 6 14 1 0 0 0 0 0 0 0 2 97 100 100 60 64 100 100 100 100 100 100 100 100 100 100 100 100 92 90 100 100 100 100 100 100 100 100 100 100 100 100
88 77 8 0 0 0 0 0 0 0 0 2 54 40 100 100 100 100 100 100 100 100 100 100 100 100 97 100 100 100 100 100 98 100 100 100 100 100 100 100 100 100 100
99 15 35 1 0 0 0 0 0 0 2 26 76 75 62 100 100 100 100 100 100 100 100 100 100 100 100 100 100 100 100 100 100 100 100 100 100 100 100 100 100 100 100

GFSMW_prec_cloud_168.txt.gz
Cloud_Cover
0 0 1 74 28 52 88 100 100 100 100 92 87 96 99 49 100 37 90 5 56 69 53 38 15 5 18 97 88 91 5 5 5 6 5 5 6 5 5 0 1 0 0
0 0 0 43 55 83 19 74 100 100 100 91 100 100 100 49 100 24 5 50 19 28 5 5 5 5 31 5 2 3 5 5 84 25 79 62 6 4 8 0 0 5 0
14 9 8 24 98 84 94 28 85 100 100 63 89 100 100 99 94 83 3 5 5 3 0 9 49 5 6 6 5 5 5 4 46 50 8 100 21 14 45 1 8 0 0
34 87 29 16 17 84 100 82 54 100 11 91 25 100 100 58 46 100 77 5 70 5 0 46 65 91 4 5 5 5 5 0 29 100 89 100 6 4 19 5 5 5 4
93 28 6 99 95 7 59 100 38 38 2 5 63 48 66 7 0 5 6 0 5 5 0 2 5 46 5 0 4 4 5 0 5 88 99 45 5 5 5 6 50 49 7
96 5 7 65 68 6 6 49 100 4 0 2 57 6 5 3 14 7 3 0 0 4 4 2 3 5 3 5 5 5 3 1 5 5 5 5 5 6 40 98 100 100 100
95 5 5 5 6 5 5 80 56 100 2 0 5 5 0 2 2 0 0 0 0 0 4 0 5 5 16 3 5 5 2 5 2 5 5 6 6 96 100 98 100 100 95
100 14 6 5 5 11 5 41 100 100 16 20 16 5 8 5 0 0 1 0 0 0 0 0 0 32 94 5 0 5 5 4 39 7 5 3 5 70 100 16 18 37 71
83 2 5 15 70 55 17 17 92 100 100 76 1 3 0 0 0 0 6 4 0 48 0 0 0 11 29 3 0 2 6 16 64 12 5 5 5 12 100 52 96 81 21
14 5 5 31 81 22 20 90 100 100 100 100 37 0 0 0 0 0 2 0 17 1 0 0 2 9 5 2 2 4 27 36 61 100 21 5 4 5 12 33 100 37 23
27 5 6 86 97 100 99 56 100 100 100 100 77 0 0 0 0 2 2 1 4 0 1 0 0 0 4 2 2 3 10 52 5 5 13 31 5 5 11 5 56 100 96
100 5 98 6 43 48 100 18 100 100 100 100 100 0 0 0 6 7 0 4 0 0 1 0 0 2 0 0 0 3 2 5 5 5 5 36 11 5 21 93 20 42 78
100 66 89 31 5 9 100 37 76 100 100 100 84 72 100 100 15 0 0 0 0 0 0 0 0 0 0 0 1 3 0 3 5 0 4 4 5 5 5 5 5 5 63
13 100 98 80 5 5 37 27 6 8 100 100 100 100 94 100 68 6 2 0 0 0 0 0 0 99 89 100 100 6 5 5 3 0 0 4 4 5 5 5 5 5 5
28 82 100 94 5 8 1 5 5 19 61 100 59 100 98 89 7 0 13 21 0 0 0 0 15 98 94 100 61 5 0 0 1 0 2 0 5 4 55 8 4 5 5
96 5 84 100 100 100 14 4 4 5 26 72 100 100 90 76 24 5 5 0 35 15 0 5 5 100 100 100 7 5 3 0 4 5 4 5 11 10 38 29 32 100 100
100 96 38 58 98 91 100 10 5 11 5 100 90 94 100 79 100 62 5 4 2 26 38 25 94 38 100 100 100 95 5 4 0 1 0 5 5 14 9 40 98 97 100
22 95 95 17 4 3 8 71 8 16 19 19 56 100 95 99 100 60 13 8 14 11 14 30 32 22 6 99 100 100 78 5 3 1 3 2 0 4 5 6 16 41 5
2 0 0 3 23 4 6 12 34 26 21 4 2 100 100 100 100 98 73 88 55 40 21 53 90 5 5 45 100 97 9 54 47 93 5 8 4 9 27 5 5 5 10
0 0 0 0 0 1 2 0 0 0 0 0 0 34 93 100 100 100 100 100 94 96 100 97 57 26 8 83 100 100 100 100 100 100 100 100 100 100 100 100 100 100 100
0 2 3 0 0 9 0 0 0 0 7 45 42 26 8 68 100 100 100 100 100 99 100 79 38 31 99 100 100 100 100 100 97 100 100 100 98 100 100 100 100 100 100
33 4 4 0 4 13 0 0 0 7 23 47 13 5 14 18 32 100 97 100 100 98 61 100 100 100 100 100 100 100 100 100 100 100 100 100 93 100 100 100 100 100 100
100 70 5 1 12 1 0 0 3 18 54 26 19 25 78 71 17 92 100 43 72 100 89 99 100 100 100 100 100 100 100 100 100 100 100 100 100 100 100 100 100 100 100
90 3 2 5 7 5 0 0 6 0 9 13 21 18 5 25 17 84 100 100 100 100 100 100 100 93 100 98 100 100 100 100 100 99 100 100 100 100 100 100 100 100 100
84 78 39 65 20 7 0 0 0 0 0 4 47 47 96 100 100 100 100 100 100 100 100 100 100 100 100 100 100 100 100 100 100 100 100 100 100 100 100 100 100 100 100
100 100 62 99 24 5 5 3 2 0 3 58 100 89 100 100 100 100 100 100 100 100 100 100 100 100 100 100 100 100 100 100 100 100 100 100 100 100 100 100 100 100 100

GFSMW_prec_cloud_171.txt.gz
Cloud_Cover
9 4 0 0 9 27 5 100 100 100 100 17 13 96 100 100 100 100 98 36 5 13 68 5 33 0 0 4 1 3 1 5 1 0 4 4 5 2 2 0 1 0 0
47 2 6 5 5 66 93 16 80 100 100 97 73 82 84 100 100 100 91 4 2 10 16 45 5 4 0 0 4 3 5 5 3 3 5 3 3 4 4 0 0 0 0
92 36 45 5 5 62 68 86 73 74 100 100 77 42 88 100 81 30 62 3 3 42 5 5 11 20 0 0 2 4 2 2 5 4 1 2 3 2 0 0 62 31 0
100 52 46 15 10 22 79 100 58 3 44 22 56 7 79 94 60 55 5 5 5 40 5 5 41 77 5 0 0 2 0 0 3 4 0 1 0 0 0 0 2 75 11
99 7 12 11 6 14 38 100 100 100 67 90 5 4 5 95 79 70 12 7 96 100 81 5 53 10 45 1 0 0 4 5 3 27 0 2 5 0 1 5 4 49 75
40 49 51 92 89 25 78 92 68 89 52 2 0 0 26 90 82 4 82 0 64 100 58 5 100 30 6 13 0 5 5 5 4 25 4 5 11 23 40 87 100 98 49
24 98 83 68 46 50 93 80 68 12 0 0 0 4 38 22 62 2 1 0 0 99 54 4 57 55 5 56 0 5 5 5 2 2 5 12 98 100 100 91 97 42 10
96 96 80 100 93 81 94 53 81 100 100 26 0 0 0 0 0 1 4 0 0 3 93 3 4 37 5 5 5 3 5 4 5 3 7 84 100 82 39 99 87 37 21
24 96 90 93 84 61 55 44 100 100 100 100 89 0 0 0 0 0 2 0 0 0 4 1 3 5 17 26 37 5 5 5 4 1 14 100 5 4 3 1 48 5 5
100 100 19 92 53 94 42 45 71 100 100 89 100 13 0 0 0 0 0 0 0 0 0 0 0 5 5 64 5 6 5 33 5 5 5 5 95 90 8 5 88 49 28
57 91 99 97 97 100 100 86 67 100 100 100 94 1 0 0 0 0 0 0 0 0 0 4 0 4 2 22 39 5 0 5 2 5 97 88 30 7 7 5 13 78 11
63 73 62 99 85 39 100 100 100 88 100 100 98 7 0 0 0 0 0 0 0 2 0 0 0 0 1 8 18 33 5 19 6 49 60 40 19 4 4 6 32 26 87
100 94 38 52 5 42 86 88 63 85 97 100 82 91 11 94 0 0 0 0 0 4 0 0 0 0 0 5 24 87 65 60 5 7 73 5 5 5 5 30 90 79 7
100 83 98 84 29 29 39 100 6 19 100 100 71 100 100 92 58 42 4 0 5 1 0 0 0 0 0 0 0 5 5 5 5 5 6 5 8 5 5 36 5 65 4
54 74 46 32 100 100 91 87 96 39 51 66 100 98 100 100 100 31 25 6 5 1 10 0 0 0 1 3 0 0 2 5 21 27 5 3 2 7 8 5 3 5 10
6 70 100 53 6 68 100 97 92 98 58 61 49 95 100 100 100 49 5 5 7 11 31 25 0 0 0 7 93 100 94 5 5 16 5 0 0 16 2 11 14 5 22
0 6 17 98 37 5 84 66 60 5 36 12 7 50 100 100 100 100 52 8 8 3 21 28 9 1 8 7 100 100 10 5 3 5 2 0 0 2 0 74 63 90 99
1 5 5 6 21 5 18 87 90 35 14 9 2 5 25 94 100 100 46 12 100 6 13 42 28 21 7 6 100 83 5 5 3 5 4 0 0 0 0 5 2 0 4
12 2 5 0 10 4 5 0 51 100 100 100 82 51 51 77 92 100 96 97 94 17 5 0 21 35 15 33 100 38 18 34 5 5 5 100 82 81 8 5 4 14 5
27 97 3 0 0 10 5 5 2 3 13 35 51 79 96 100 100 99 100 100 100 100 68 54 41 7 5 100 100 100 81 64 100 27 2 4 21 86 100 100 100 100 100
14 27 28 3 0 0 0 0 0 0 17 48 100 95 76 67 54 71 96 100 91 93 100 98 69 60 56 88 100 100 100 92 92 19 5 31 96 98 100 100 100 100 100
60 83 74 95 5 0 0 0 0 0 33 94 81 64 51 20 35 90 99 100 93 100 92 100 100 100 100 100 100 100 100 100 100 100 56 100 100 100 100 100 91 98 100
5 6 35 55 12 5 4 0 0 0 48 45 46 46 42 33 30 41 64 62 100 100 100 100 100 100 100 100 100 100 100 97 100 100 100 100 100 100 99 100 100 100 100
98 25 24 82 39 10 5 0 0 0 0 4 30 37 17 32 35 32 100 100 100 100 100 100 100 100 100 85 92 77 100 100 100 100 100 99 99 98 93 100 100 100 100
100 12 20 81 51 47 30 5 0 0 0 0 58 48 17 22 42 84 97 100 100 100 100 100 100 100 100 100 100 100 100 100 100 100 100 100 100 100 100 100 100 100 100
100 100 100 94 100 100 84 5 0 2 0 4 100 100 95 82 55 45 92 100 100 100 100 100 87 99 99 100 100 100 100 100 100 96 100 100 100 100 100 100 100 100 100

GFSMW_prec_cloud_174.txt.gz
Cloud_Cover
17 5 5 5 5 4 43 6 100 93 63 83 35 100 100 35 47 98 64 100 88 5 8 5 1 4 12 3 2 0 2 5 5 5 55 2 2 4 6 30 2 0 0
54 5 5 5 5 11 86 100 19 46 57 87 94 100 85 41 99 100 100 100 3 41 9 33 1 0 6 0 0 0 0 0 0 4 26 94 35 96 69 4 2 0 0
64 5 5 12 5 7 5 6 50 5 67 53 55 62 100 100 100 100 100 5 0 86 90 4 10 0 0 0 5 4 0 0 0 0 31 95 100 66 3 0 2 0 0
100 100 100 100 5 2 5 5 15 5 3 98 84 7 68 100 100 100 94 5 1 37 21 3 0 5 0 0 0 2 0 0 1 2 0 2 5 95 100 27 3 0 33
100 100 100 100 5 2 4 5 5 5 4 1 83 6 14 100 100 100 45 0 5 76 16 5 0 0 0 0 0 0 5 4 3 0 0 10 0 0 4 54 100 8 1
100 70 99 34 60 5 5 5 5 48 4 5 4 5 5 35 99 100 26 15 6 63 19 63 2 5 6 2 0 0 3 83 39 0 0 16 26 57 100 100 100 100 86
100 82 22 25 84 9 5 10 8 34 2 0 2 0 5 7 6 8 29 95 94 47 22 48 5 5 1 41 62 4 5 99 74 5 6 12 13 33 96 95 91 92 98
61 98 11 82 95 7 11 20 37 100 100 96 0 0 0 0 42 8 20 9 19 50 43 6 2 5 2 13 100 96 12 8 7 5 99 100 100 32 49 21 5 12 87
69 29 96 90 75 74 91 44 60 67 56 98 81 0 0 0 5 5 5 0 0 8 4 3 0 0 5 0 5 93 99 6 5 46 100 100 100 100 100 100 98 68 79
11 7 91 23 84 7 94 100 96 90 94 81 56 5 0 2 0 0 1 0 0 0 2 2 3 5 2 0 2 9 62 6 5 99 100 25 6 5 32 96 45 32 26
92 9 35 32 98 54 90 100 100 100 100 100 39 5 0 0 0 0 0 0 0 0 0 4 2 4 1 5 22 4 6 10 9 35 100 44 7 4 14 98 100 18 67
66 100 62 59 12 82 100 100 100 100 50 100 73 53 24 0 0 0 0 0 0 2 0 0 0 0 20 60 93 8 42 13 11 16 17 7 36 76 25 10 100 100 85
100 51 5 95 28 74 100 100 100 100 100 100 98 93 68 9 0 0 0 0 0 0 0 14 0 0 38 46 80 30 4 13 22 5 22 10 7 6 6 90 19 49 55
68 99 6 37 96 74 75 66 100 91 100 100 100 100 100 90 7 17 20 14 3 8 4 6 15 1 5 86 5 59 6 3 5 5 10 5 2 1 11 6 10 18 11
0 7 81 6 84 92 7 5 20 97 68 99 98 100 100 100 100 43 4 12 31 27 36 24 3 6 1 23 5 46 100 100 65 5 5 6 5 1 3 1 3 6 5
0 0 0 4 5 62 100 100 72 100 37 100 21 100 100 100 100 100 100 14 84 96 51 11 6 0 0 0 2 0 2 46 100 100 95 10 0 7 1 0 0 0 1
6 5 0 0 0 5 5 60 59 75 100 99 88 15 49 100 100 100 100 99 7 1 8 16 17 54 11 0 0 0 0 0 0 5 5 4 0 0 0 55 25 67 38
5 4 0 0 4 0 0 5 5 5 54 100 76 89 58 93 94 100 100 100 100 42 35 51 38 32 6 0 0 0 0 0 0 5 0 0 0 0 0 1 14 2 10
4 5 4 0 0 5 19 0 6 5 5 51 85 84 35 83 99 100 83 100 100 100 100 71 26 100 26 8 4 11 10 59 72 5 1 2 8 1 1 0 8 16 43
5 2 3 5 5 0 3 99 22 15 11 8 55 45 77 77 95 100 100 100 99 75 82 100 100 48 90 65 42 56 5 99 100 82 41 5 22 5 38 5 14 91 20
3 6 5 5 5 1 0 0 1 4 93 31 97 74 100 100 100 100 100 100 100 100 96 99 100 95 100 100 100 100 11 92 61 67 98 100 89 96 100 96 25 41 66
5 5 5 72 5 5 0 0 0 0 0 80 100 100 100 38 58 88 62 91 100 99 78 91 100 100 100 100 100 100 96 82 83 81 60 61 100 100 100 87 58 99 84
66 5 5 54 34 5 5 0 0 0 0 1 100 96 63 59 38 35 89 27 73 17 53 100 100 100 100 100 100 91 35 88 65 94 79 71 95 100 100 99 91 99 99
5 5 5 27 12 7 5 4 0 0 0 0 0 77 23 27 27 6 0 1 30 98 100 100 100 100 100 74 40 32 46 45 72 87 92 90 99 91 70 97 71 90 92
19 9 79 28 6 11 5 2 0 2 3 2 0 0 0 6 23 6 5 47 71 77 100 98 100 86 72 53 58 41 32 39 61 78 100 99 100 100 100 99 100 100 100
5 70 100 92 5 5 4 3 4 4 3 0 0 0 0 2 1 52 26 93 89 99 94 94 58 48 59 96 100 100 100 100 100 92 100 100 100 100 100 100 100 100 100